K5KVN-2 Weather Reports


Display with metric or nautical units.
time (UTC)temp
F
wind
direction
speed
MPH
gust
MPH
rain 1hr
in
rain 24hr
in
rain mn
in
humidity
%
barometer
mb
20260502191223 65 298 7.0 17.0 0.00 0.00 0.00 36 1020.5
20260502190225 65 321 9.0 16.0 0.00 0.00 0.00 39 1020.5
20260502185223 64 308 9.0 18.0 0.00 0.00 0.00 37 1020.4
20260502184223 64 275 8.0 16.0 0.00 0.00 0.00 40 1020.5
20260502183223 64 315 8.0 14.0 0.00 0.00 0.00 44 1020.5
20260502182701 65 318 8.0 17.0 0.00 0.00 0.00 41 1020.6
20260502181223 65 307 6.0 13.0 0.00 0.00 0.00 42 1020.6
20260502180707 64 297 7.0 14.0 0.00 0.00 0.00 44 1020.7
20260502170223 62 5 6.0 13.0 0.00 0.00 0.00 43 1021.4
20260502164223 62 319 6.0 12.0 0.00 0.00 0.00 43 1021.5
20260502163222 62 355 5.0 12.0 0.00 0.00 0.00 46 1021.5
20260502162224 61 334 6.0 14.0 0.00 0.00 0.00 48 1021.5
20260502161224 61 42 7.0 12.0 0.00 0.00 0.00 48 1021.4
20260502160224 61 309 7.0 12.0 0.00 0.00 0.00 47 1021.5
20260502152222 59 355 5.0 11.0 0.00 0.00 0.00 46 1021.1
20260502151223 58 5 6.0 11.0 0.00 0.00 0.00 48 1021.2
20260502150225 58 342 6.0 11.0 0.00 0.00 0.00 49 1021.4
20260502130215 47 161 0.0 0.0 0.00 0.00 0.00 90 1020.6
20260502123700 46 240 0.0 1.0 0.00 0.00 0.00 92 1020.5
20260502122213 45 240 0.0 0.0 0.00 0.00 0.00 92 1020.3
20260502121212 45 240 0.0 0.0 0.00 0.00 0.00 93 1020.2
20260502120648 44 240 0.0 0.0 0.00 0.00 0.00 93 1020.2
20260502115210 44 240 0.0 1.0 0.00 0.00 0.00 93 1020.0
20260502114212 44 259 0.0 0.0 0.00 0.00 0.00 93 1019.9
20260502113210 43 311 0.0 1.0 0.00 0.00 0.00 93 1019.8
20260502112647 43 311 0.0 0.0 0.00 0.00 0.00 93 1019.7
20260502111211 42 311 0.0 1.0 0.00 0.00 0.00 93 1019.6
20260502110212 42 343 0.0 1.0 0.00 0.00 0.00 93 1019.5
20260502105208 42 344 0.0 1.0 0.00 0.00 0.00 93 1019.4
20260502104209 42 13 0.0 2.0 0.00 0.00 0.00 93 1019.3
20260502102209 42 294 0.0 0.0 0.00 0.00 0.00 93 1019.2
20260502101211 42 294 0.0 0.0 0.00 0.00 0.00 92 1019.1
20260502100652 42 294 0.0 0.0 0.00 0.00 0.00 92 1019.1
20260502090202 42 326 0.0 0.0 0.00 0.00 0.00 93 1019.0
20260502070158 43 326 0.0 0.0 0.00 0.00 0.00 88 1019.0
20260502065155 43 326 0.0 0.0 0.00 0.00 0.00 87 1019.0
20260502064157 44 326 0.0 0.0 0.00 0.00 0.00 87 1018.9
20260502062155 44 326 0.0 0.0 0.00 0.00 0.00 84 1019.0
20260502061157 44 326 0.0 0.0 0.00 0.00 0.00 82 1019.0
20260502060627 45 326 0.0 0.0 0.00 0.00 0.00 82 1019.0
20260502055148 46 326 0.0 0.0 0.00 0.00 0.00 82 1018.9
20260502054627 46 326 0.0 0.0 0.00 0.00 0.00 82 1018.9
20260502053147 45 326 0.0 0.0 0.00 0.00 0.00 84 1018.9
20260502052148 45 326 0.0 0.0 0.00 0.00 0.00 82 1019.1
20260502051148 45 326 0.0 0.0 0.00 0.00 0.00 84 1019.2
20260502050149 46 326 0.0 0.0 0.00 0.00 0.00 82 1019.2
20260502045146 46 326 0.0 0.0 0.00 0.00 0.00 80 1019.1
20260502044144 46 326 0.0 0.0 0.00 0.00 0.00 80 1019.2
20260502043146 46 326 0.0 0.0 0.00 0.00 0.00 78 1019.0
20260502042141 47 326 0.0 0.0 0.00 0.00 0.00 77 1018.9
20260502041142 47 326 0.0 0.0 0.00 0.00 0.00 77 1019.0
20260502040137 48 326 0.0 0.0 0.00 0.00 0.00 75 1019.1
20260502035138 49 326 0.0 0.0 0.00 0.00 0.00 73 1019.0
20260502034612 49 326 0.0 0.0 0.00 0.00 0.00 71 1019.1
20260502033609 49 326 0.0 0.0 0.00 0.00 0.00 70 1019.0
20260502030129 51 326 0.0 0.0 0.00 0.00 0.00 66 1019.0
20260502025131 51 326 0.0 0.0 0.00 0.00 0.00 62 1018.9
20260502024134 52 326 0.0 0.0 0.00 0.00 0.00 62 1018.8
20260502023603 53 326 0.0 0.0 0.00 0.00 0.00 61 1018.9
20260502022131 53 326 0.0 0.0 0.00 0.00 0.00 60 1018.8
20260502021130 54 326 0.0 0.0 0.00 0.00 0.00 56 1018.7
20260502020131 54 326 0.0 0.0 0.00 0.00 0.00 54 1018.7
20260502015132 55 326 0.0 0.0 0.00 0.00 0.00 53 1018.6
20260502014129 56 326 0.0 0.0 0.00 0.00 0.00 54 1018.6
20260502013133 57 327 1.0 2.0 0.00 0.00 0.00 47 1018.6
20260502012132 58 327 2.0 3.0 0.00 0.00 0.00 44 1018.3
20260502011616 58 329 2.0 2.0 0.00 0.00 0.00 45 1018.1
20260502010124 59 329 2.0 3.0 0.00 0.00 0.00 44 1017.9
20260502005120 59 327 2.0 4.0 0.00 0.00 0.00 42 1017.8
20260502004120 59 344 2.0 6.0 0.00 0.00 0.00 42 1017.7
20260502003119 60 334 3.0 5.0 0.00 0.00 0.00 42 1017.6
20260502002549 60 339 2.0 7.0 0.00 0.00 0.00 40 1017.4
20260502001116 60 355 2.0 6.0 0.00 0.00 0.00 40 1017.2
20260501235109 61 26 3.0 9.0 0.00 0.00 0.00 37 1017.1
20260501234109 61 355 6.0 16.0 0.00 0.00 0.00 38 1017.0
20260501233107 62 5 6.0 12.0 0.00 0.00 0.00 37 1016.9
20260501232107 62 339 6.0 15.0 0.00 0.00 0.00 36 1016.7
20260501231106 62 21 5.0 10.0 0.00 0.00 0.00 36 1016.7
20260501230107 62 344 3.0 10.0 0.00 0.00 0.00 37 1016.6
20260501225105 62 302 6.0 12.0 0.00 0.00 0.00 33 1016.7
20260501224106 63 300 6.0 17.0 0.00 0.00 0.00 33 1016.7
20260501223104 63 340 6.0 13.0 0.00 0.00 0.00 34 1016.6
20260501221552 63 329 7.0 17.0 0.00 0.00 0.00 37 1016.4
20260501220104 63 325 8.0 15.0 0.00 0.00 0.00 37 1016.2
20260501215104 64 337 7.0 15.0 0.00 0.00 0.00 34 1016.3
20260501214101 64 338 7.0 15.0 0.00 0.00 0.00 35 1016.1
20260501213104 64 355 9.0 17.0 0.00 0.00 0.00 34 1015.9
20260501212101 64 333 7.0 16.0 0.00 0.00 0.00 30 1016.1
20260501211101 64 0 8.0 16.0 0.00 0.00 0.00 32 1016.1
20260501205103 65 355 6.0 13.0 0.00 0.00 0.00 31 1016.4
20260501204103 65 5 7.0 18.0 0.00 0.00 0.00 34 1016.5
20260501203102 64 338 7.0 14.0 0.00 0.00 0.00 32 1017.0
20260501201101 65 347 7.0 13.0 0.00 0.00 0.00 36 1017.7
20260501195549 65 327 8.0 12.0 0.00 0.00 0.00 34 1018.0
20260501194103 64 313 7.0 13.0 0.00 0.00 0.00 40 1018.2
20260501193103 64 333 5.0 13.0 0.00 0.00 0.00 40 1018.4
20260501192102 63 267 5.0 11.0 0.00 0.00 0.00 40 1018.6